Regional Weather Roundup
Issued by NWS

Home | Current Version | Previous Version | Text Only | Print | Product List | Glossary On
Versions: 1 2 3 4 5 6 7 8 9 10 11 12 13 14 15 16 17 18 19 20 21 22 23 24 25 26 27 28 29 30 31 32 33 34 35 36 37 38 39 40 41 42 43 44 45 46 47 48 49 50
000
ASUS43 KOAX 262110
RWRNE

WEATHER ROUNDUP FOR NEBRASKA
NATIONAL WEATHER SERVICE OMAHA NE
300 PM CST THU FEB 26 2015

NOTES: SATELLITE DATA IS BEING USED TO AUGMENT CLOUD COVER ABOVE
       12000 FEET.
       "FAIR" INDICATES FEW OR NO CLOUDS BELOW 12,000 FEET WITH NO
       SIGNIFICANT WEATHER AND/OR OBSTRUCTIONS TO VISIBILITY.

  * THESE STATIONS DO NOT REPORT WEATHER SUCH AS RAIN...SNOW OR FOG.

NEZ001>004-019>022-054>056-262200-
NEBRASKA PANHANDLE

CITY           SKY/WX    TMP DP  RH WIND       PRES   REMARKS
SCOTTSBLUFF    CLOUDY    17   3  54 VRB3      30.28F
ALLIANCE       PTSUNNY   13   1  59 VRB7      30.29F WCI   3
CHADRON        PTSUNNY   13   2  61 E8        30.37F WCI   2
KIMBALL        LGT SNOW  14   8  75 NE6       30.17F WCI   5
SIDNEY         CLOUDY    17   5  59 N6        30.24F WCI   9
$$

NEZ057>060-069>072-079>082-262200-
SOUTHWEST NEBRASKA

CITY           SKY/WX    TMP DP  RH WIND       PRES   REMARKS
NORTH PLATTE   SUNNY     20  -4  34 N14G20    30.36F WCI   7
IMPERIAL       PTSUNNY   22   1  40 NE10G17   30.31F WCI  11
LEXINGTON      SUNNY     20  -7  30 N12G22    30.40F WCI   8
MCCOOK         SUNNY     25  -2  31 N9G20     30.38F WCI  15
OGALLALA       PTSUNNY   20   1  43 NE13G18   30.32F WCI   8
$$

NEZ005>010-023>029-035>040-094-262200-
NORTH CENTRAL NEBRASKA

CITY           SKY/WX    TMP DP  RH WIND       PRES   REMARKS
VALENTINE      MOSUNNY   12  -2  53 N14       30.43F WCI  -3
AINSWORTH      SUNNY     11  -4  51 N17G23    30.43S WCI  -7
BROKEN BOW     SUNNY     17  -5  37 N13G25    30.39F WCI   4
O`NEILL        PTSUNNY   12   1  60 NW16      30.47S WCI  -4
ORD            SUNNY     16  -7  35 N14G24    30.44S WCI   2
THEDFORD       SUNNY     17  -4  40 N14       30.38S WCI   3
$$

NEZ041-046>049-061>064-073>077-083>087-262200-
SOUTH CENTRAL NEBRASKA

CITY           SKY/WX    TMP DP  RH WIND       PRES   REMARKS
GRAND ISLAND   SUNNY     16  -5  39 N14G21    30.46S WCI   2
AURORA         SUNNY     16  -5  39 N10G23    30.46S WCI   4
HASTINGS       SUNNY     17  -7  34 N15       30.43F WCI   2
HEBRON         SUNNY     18  -6  35 N9G24     30.47F WCI   7
HOLDREGE       SUNNY     19  -8  29 N9G17     30.40F WCI   9
KEARNEY *      SUNNY     18  -8  32 N13G28    30.43S WCI   4
YORK           PTSUNNY   14   0  52 N8G21     30.47S WCI   3
$$

NEZ011>018-030>034-042>045-262200-
NORTHEAST NEBRASKA

CITY           SKY/WX    TMP DP  RH WIND       PRES   REMARKS
NORFOLK        CLOUDY    11   1  64 N18G25    30.47F WCI  -7
ALBION         PTSUNNY   13   0  55 N14G21    30.47F WCI  -2
BLAIR          CLOUDY    10  -1  60 N16G24    30.48S WCI  -7
COLUMBUS *     CLOUDY    12  -6  44 N16       30.50F WCI  -4
FREMONT        CLOUDY    12   2  62 N10G18    30.50F WCI  -1
TEKAMAH        CLOUDY    11   0  61 N14       30.52F WCI  -5
WAYNE          CLOUDY    11   1  63 N18       30.50S WCI  -7
$$

NEZ050>053-065>068-078-088>093-262200-
SOUTHEAST NEBRASKA

CITY           SKY/WX    TMP DP  RH WIND       PRES   REMARKS
LINCOLN        CLOUDY    15   0  51 N17G24    30.52R WCI  -1
OMAHA EPPLEY   FLURRIES  11   2  67 N20       30.51S WCI  -7
BEATRICE       MOSUNNY   16   1  51 N15G24    30.48S WCI   1
FALLS CITY     SUNNY     17  -3  41 N15G25    30.48S WCI   2
NEBRASKA CITY  PTSUNNY   13  -3  48 N13G23    30.48S WCI  -1
PLATTSMOUTH    PTSUNNY   12  -1  56 N14       30.49R WCI  -4
$$

NEZ044-045-051>053-067-262200-
OMAHA AREA

CITY           SKY/WX    TMP DP  RH WIND       PRES   REMARKS
OMAHA EPPLEY   FLURRIES  11   2  67 N20       30.51S WCI  -7
BLAIR          CLOUDY    10  -1  60 N16G24    30.48S WCI  -7
FREMONT        CLOUDY    12   2  62 N10G18    30.50F WCI  -1
MILLARD        CLOUDY    11  -1  58 N10G18    30.52R WCI  -2
OFFUTT AFB     MOSUNNY   10   0  61 NW14G20   30.50S WCI  -5
PLATTSMOUTH    PTSUNNY   12  -1  56 N14       30.49R WCI  -4
WAHOO          CLOUDY    12   1  62 N15       30.51R WCI  -4
$$


USA.gov is the U.S. government's official web portal to all federal, state and local government web resources and services.